1491487200.64,26055,14.44,72566.3,-9.67,-10.79,-10.71,0,*54
1491487201.9,26056,14.44,72560.0,-9.67,-10.79,-10.67,0,*50
1491487203.12,26057,14.44,72558.8,-9.67,-10.85,-10.79,0,*5D
1491487204.32,26058,14.44,72562.8,-9.67,-10.85,-10.85,0,*51
1491487205.51,26059,14.44,72564.8,-9.67,-10.85,-10.85,0,*50
1491487206.71,26060,14.44,72564.3,-9.67,-10.57,-10.57,0,*5A
1491487207.99,26061,14.44,72566.0,-9.65,-10.75,-10.79,0,*55
1491487209.28,26062,14.44,72562.8,-9.65,-10.67,-10.75,0,*59
1491487210.51,26063,14.44,72560.0,-9.63,-10.79,-10.89,0,*52
1491487211.74,26064,14.44,72568.8,-9.65,-11.01,-11.01,0,*5C
1491487212.95,26065,14.44,72566.8,-9.63,-11.01,-11.15,0,*5E
1491487214.15,26066,14.44,72566.5,-9.63,-10.93,-11.01,0,*52
1491487215.41,26067,14.44,72572.5,-9.63,-11.07,-11.07,0,*59
1491487216.67,26068,14.44,72560.5,-9.63,-11.07,-11.07,0,*56
1491487217.87,26069,14.44,72558.8,-9.63,-11.15,-11.15,0,*57
1491487219.15,26070,14.44,72560.3,-9.65,-11.29,-11.33,0,*52
1491487220.41,26071,14.44,72550.8,-9.63,-11.07,-11.07,0,*5E
1491487221.6,26072,14.44,72550.3,-9.63,-11.15,-11.19,0,*51
1491487222.81,26073,14.38,72540.5,-9.63,-11.01,-11.01,0,*5C
1491487224.04,26074,14.44,72548.3,-9.65,-10.93,-10.93,0,*5D
1491487225.27,26075,14.44,72550.0,-9.63,-10.79,-10.89,0,*55
1491487226.48,26076,14.44,72548.3,-9.63,-11.01,-11.01,0,*59
1491487227.67,26077,14.44,72542.0,-9.63,-11.19,-11.15,0,*54
1491487228.91,26078,14.44,72548.3,-9.61,-11.15,-11.11,0,*51
1491487230.15,26079,14.38,72542.5,-9.61,-11.01,-10.97,0,*5A
1491487231.38,26080,14.44,72546.0,-9.61,-11.11,-11.01,0,*53
1491487232.61,26081,14.44,72540.0,-9.61,-11.11,-11.01,0,*52
1491487233.84,26082,14.44,72536.0,-9.61,-11.11,-11.15,0,*54
1491487235.04,26083,14.44,72546.3,-9.59,-11.23,-11.23,0,*5A
1491487236.32,26084,14.44,72546.0,-9.61,-11.37,-11.29,0,*59
1491487237.55,26085,14.38,72552.5,-9.61,-11.15,-11.23,0,*52
1491487238.79,26086,14.44,72562.3,-9.59,-11.23,-11.29,0,*55
1491487240.04,26087,14.44,72566.5,-9.61,-11.15,-11.29,0,*5A
1491487241.27,26088,14.38,72586.8,-9.61,-11.11,-11.23,0,*5B
1491487242.56,26089,14.44,72586.0,-9.61,-11.29,-11.29,0,*5B
1491487243.82,26090,14.38,72574.0,-9.59,-11.93,-12.07,0,*56
1491487245.1,26091,14.44,72568.5,-9.61,-11.97,-11.97,0,*52
1491487246.38,26092,14.44,72544.3,-9.61,-11.67,-11.59,0,*5C
1491487247.64,26093,14.44,72540.3,-9.61,-11.41,-11.37,0,*51
1491487248.9,26094,14.38,72530.3,-9.61,-11.55,-11.45,0,*56
1491487250.19,26095,14.44,72528.5,-9.61,-11.29,-11.29,0,*56
1491487251.45,26096,14.44,72530.5,-9.61,-11.59,-11.45,0,*58
1491487252.73,26097,14.38,72536.3,-9.61,-11.59,-11.59,0,*54
1491487254.01,26098,14.44,72540.5,-9.61,-11.93,-11.81,0,*58
1491487255.3,26099,14.38,72536.5,-9.61,-11.59,-11.67,0,*57
1491487256.55,26100,14.44,72506.3,-9.63,-11.85,-11.89,0,*55
1491487257.76,26101,14.44,72500.0,-9.63,-11.45,-11.45,0,*58
1491487258.99,26102,14.44,72510.0,-9.63,-11.45,-11.33,0,*5A
1491487260.22,26103,14.38,72514.3,-9.63,-11.33,-11.41,0,*5F
1491487261.41,26104,14.44,72534.5,-9.63,-11.19,-11.19,0,*5D
1491487262.66,26105,14.44,72526.0,-9.63,-11.33,-11.33,0,*5C
1491487263.91,26106,14.44,72532.5,-9.63,-11.33,-11.33,0,*5F
1491487265.17,26107,14.44,72540.3,-9.63,-11.29,-11.29,0,*5E
1491487266.37,26108,14.38,72552.3,-9.63,-11.15,-11.19,0,*5D
1491487267.59,26109,14.44,72548.5,-9.63,-11.07,-11.15,0,*53
1491487268.82,26110,14.44,72546.0,-9.63,-11.51,-11.45,0,*5D
1491487270.07,26111,14.44,72566.5,-9.63,-11.33,-11.29,0,*52
1491487271.33,26112,14.38,72558.8,-9.63,-11.29,-11.29,0,*5A
1491487272.58,26113,14.44,72564.0,-9.63,-11.63,-11.59,0,*52
1491487273.83,26114,14.38,72562.5,-9.63,-11.33,-11.33,0,*5C
1491487275.09,26115,14.38,72548.3,-9.63,-11.33,-11.29,0,*56
1491487276.28,26116,14.44,72550.3,-9.63,-11.19,-11.19,0,*5E
1491487277.49,26117,14.38,72546.5,-9.63,-11.45,-11.45,0,*5F
1491487278.74,26118,14.38,72562.0,-9.63,-11.33,-11.33,0,*50
1491487280.0,26119,14.38,72566.8,-9.61,-11.23,-11.29,0,*59
1491487281.27,26120,14.44,72558.5,-9.61,-11.73,-11.81,0,*54
1491487282.55,26121,14.38,72548.5,-9.61,-12.11,-12.11,0,*58
1491487283.76,26122,14.44,72548.5,-9.63,-12.25,-12.25,0,*59
1491487285.01,26123,14.44,72546.5,-9.63,-12.15,-12.15,0,*58
1491487286.29,26124,14.44,72542.0,-9.65,-11.97,-11.97,0,*59
1491487287.56,26125,14.38,72542.5,-9.65,-11.97,-11.97,0,*58
1491487288.85,26126,14.38,72546.0,-9.65,-11.89,-11.89,0,*5B
1491487290.11,26127,14.44,72558.5,-9.67,-11.93,-11.89,0,*53
1491487291.38,26128,14.38,72554.0,-9.65,-11.77,-11.85,0,*58
1491487292.66,26129,14.44,72546.3,-9.65,-11.73,-11.73,0,*54
1491487293.92,26130,14.38,72546.8,-9.67,-11.63,-11.63,0,*5E
1491487295.16,26131,14.38,72544.0,-9.67,-11.37,-11.37,0,*5F
1491487296.41,26132,14.44,72550.3,-9.67,-11.37,-11.33,0,*58
1491487297.63,26133,14.44,72548.0,-9.67,-11.33,-11.23,0,*5C
1491487298.88,26134,14.38,72538.8,-9.67,-11.37,-11.37,0,*5A
1491487300.11,26135,14.44,72538.5,-9.67,-11.51,-11.45,0,*5E
1491487301.33,26136,14.44,72542.0,-9.71,-11.51,-11.45,0,*5A
1491487302.59,26137,14.44,72532.5,-9.67,-11.55,-11.55,0,*59
1491487303.82,26138,14.44,72526.3,-9.67,-11.45,-11.51,0,*53
1491487305.06,26139,14.38,72532.5,-9.67,-11.37,-11.33,0,*53
1491487306.31,26140,14.44,72538.3,-9.67,-11.33,-11.33,0,*59
1491487307.51,26141,14.44,72542.5,-9.67,-11.23,-11.23,0,*58
1491487308.74,26142,14.38,72550.3,-9.67,-11.07,-10.97,0,*53
1491487309.99,26143,14.38,72556.8,-9.67,-11.37,-11.33,0,*5E
1491487311.2,26144,14.44,72562.8,-9.67,-11.19,-11.33,0,*55
1491487312.45,26145,14.44,72560.3,-9.67,-11.37,-11.37,0,*5C
1491487313.68,26146,14.44,72560.3,-9.67,-11.45,-11.51,0,*5A
1491487314.93,26147,14.44,72548.0,-9.67,-11.37,-11.33,0,*5A
1491487316.17,26148,14.44,72536.5,-9.67,-11.37,-11.51,0,*51
1491487317.43,26149,14.44,72538.5,-9.67,-11.89,-11.89,0,*50
1491487318.68,26150,14.44,72530.8,-9.65,-12.15,-12.25,0,*59
1491487319.91,26151,14.38,72538.0,-9.67,-12.03,-12.07,0,*5D
1491487321.12,26152,14.44,72546.0,-9.67,-12.29,-12.29,0,*5A
1491487322.32,26153,14.38,72536.5,-9.71,-12.29,-12.29,0,*5C
1491487323.53,26154,14.44,72538.5,-9.71,-12.21,-12.29,0,*53
1491487324.79,26155,14.44,72522.5,-9.71,-12.15,-12.15,0,*5A
1491487326.03,26156,14.38,72520.0,-9.71,-11.77,-11.77,0,*59
1491487327.31,26157,14.44,72518.3,-9.73,-12.07,-12.07,0,*5A
1491487328.57,26158,14.44,72510.5,-9.75,-12.11,-12.11,0,*53
1491487329.86,26159,14.44,72508.0,-9.73,-11.93,-11.93,0,*54
1491487331.12,26160,14.44,72496.3,-9.75,-11.97,-11.93,0,*5C
1491487332.39,26161,14.44,72524.3,-9.73,-11.81,-11.85,0,*5B
1491487333.65,26162,14.38,72510.8,-9.75,-11.67,-11.59,0,*57
1491487334.9,26163,14.44,72528.0,-9.75,-11.73,-11.73,0,*5B
1491487336.15,26164,14.44,72538.0,-9.75,-11.51,-11.55,0,*58
1491487337.41,26165,14.44,72540.0,-9.75,-11.67,-11.73,0,*58
1491487338.66,26166,14.44,72556.8,-9.75,-11.37,-11.37,0,*5E
1491487339.92,26167,14.38,72556.8,-9.75,-11.29,-11.29,0,*5F
1491487341.16,26168,14.44,72566.0,-9.73,-11.01,-10.97,0,*58
1491487342.36,26169,14.44,72564.0,-9.75,-11.11,-11.11,0,*51
1491487343.59,26170,14.44,72564.8,-9.73,-11.11,-11.11,0,*5F
1491487344.83,26171,14.44,72584.5,-9.73,-10.75,-10.85,0,*51
1491487346.03,26172,14.38,72566.0,-9.71,-11.11,-11.19,0,*57
1491487347.26,26173,14.44,72560.0,-9.73,-11.15,-11.15,0,*5C
1491487348.46,26174,14.44,72566.8,-9.71,-11.11,-11.01,0,*58
1491487349.69,26175,14.44,72578.5,-9.71,-11.07,-11.19,0,*57
1491487350.93,26176,14.44,72576.0,-9.71,-11.45,-11.55,0,*5A
1491487352.18,26177,14.44,72584.5,-9.71,-11.51,-11.55,0,*5E
1491487353.43,26178,14.44,72584.8,-9.71,-11.63,-11.55,0,*50
1491487354.63,26179,14.44,72590.3,-9.71,-11.19,-11.11,0,*5C
1491487355.86,26180,14.44,72596.3,-9.71,-11.07,-11.19,0,*5D
1491487357.05,26181,14.44,72594.5,-9.67,-11.19,-11.19,0,*54
1491487358.3,26182,14.44,72598.3,-9.71,-11.33,-11.33,0,*50
1491487359.53,26183,14.44,72592.5,-9.71,-11.33,-11.23,0,*50
1491487360.73,26184,14.44,72588.8,-9.67,-11.11,-11.11,0,*51
1491487361.92,26185,14.44,72588.3,-9.71,-11.19,-11.11,0,*5F
1491487363.12,26186,14.44,72598.8,-9.67,-11.19,-11.11,0,*5B
1491487364.34,26187,14.44,72596.0,-9.67,-11.33,-11.45,0,*53
1491487365.62,26188,14.44,72576.8,-9.65,-11.85,-11.85,0,*5F
1491487366.9,26189,14.44,72580.3,-9.65,-11.73,-11.73,0,*5E
1491487368.14,26190,14.38,72564.8,-9.67,-11.67,-11.81,0,*5C
1491487369.41,26191,14.44,72536.0,-9.67,-11.93,-11.93,0,*55
1491487370.64,26192,14.38,72538.8,-9.67,-11.93,-12.03,0,*5C
1491487371.9,26193,14.44,72556.5,-9.67,-11.55,-11.63,0,*52
1491487373.11,26194,14.38,72554.0,-9.67,-12.21,-12.21,0,*50
1491487374.32,26195,14.38,72550.8,-9.71,-12.29,-12.21,0,*5E
1491487375.53,26196,14.44,72558.8,-9.71,-11.45,-11.45,0,*55
1491487376.75,26197,14.44,72566.3,-9.71,-11.33,-11.23,0,*55
1491487378.01,26198,14.44,72586.0,-9.71,-11.67,-11.63,0,*5F
1491487379.26,26199,14.44,72588.3,-9.71,-12.15,-12.15,0,*5A
1491487380.52,26200,14.44,72588.8,-9.71,-11.89,-11.89,0,*59
1491487381.77,26201,14.44,72584.3,-9.71,-11.89,-11.93,0,*53
1491487383.03,26202,14.44,72558.5,-9.71,-11.89,-11.93,0,*50
1491487384.28,26203,14.44,72540.5,-9.71,-11.63,-11.55,0,*5F
1491487385.54,26204,14.44,72518.0,-9.71,-11.77,-11.67,0,*5C
1491487386.75,26205,14.44,72512.0,-9.71,-12.21,-12.29,0,*54
1491487388.0,26206,14.44,72526.5,-9.75,-12.83,-12.83,0,*5B
1491487389.23,26207,14.38,72532.8,-9.73,-12.25,-12.25,0,*5C
1491487390.48,26208,14.44,72550.0,-9.75,-11.73,-11.67,0,*50
1491487391.74,26209,14.44,72556.3,-9.75,-12.07,-11.97,0,*5E
1491487393.0,26210,14.38,72560.0,-9.75,-11.97,-11.93,0,*58
1491487394.25,26211,14.44,72576.0,-9.75,-11.37,-11.37,0,*5D
1491487395.5,26212,14.38,72566.0,-9.75,-11.73,-11.67,0,*5B
1491487396.76,26213,14.38,72526.8,-9.75,-11.55,-11.51,0,*5B
1491487397.99,26214,14.38,72538.3,-9.75,-11.41,-11.37,0,*59
1491487399.24,26215,14.38,72520.0,-9.75,-11.37,-11.37,0,*59
1491487400.47,26216,14.44,72516.3,-9.73,-11.41,-11.41,0,*5C
1491487401.73,26217,14.38,72512.3,-9.73,-11.29,-11.23,0,*57
1491487403.0,26218,14.38,72512.5,-9.73,-11.51,-11.51,0,*52
1491487404.26,26219,14.38,72512.8,-9.75,-11.55,-11.55,0,*55
1491487405.54,26220,14.38,72526.5,-9.73,-11.51,-11.51,0,*59
1491487406.75,26221,14.38,72530.0,-9.75,-11.41,-11.41,0,*5E
1491487407.95,26222,14.38,72536.0,-9.75,-11.23,-11.23,0,*5D
1491487409.18,26223,14.38,72532.5,-9.73,-11.15,-11.15,0,*5A
1491487410.41,26224,14.38,72546.0,-9.73,-10.89,-10.97,0,*52
1491487411.65,26225,14.38,72546.5,-9.73,-10.97,-11.11,0,*53
1491487412.87,26226,14.38,72546.8,-9.73,-11.15,-11.15,0,*5F
1491487414.13,26227,14.38,72546.0,-9.73,-11.23,-11.29,0,*54
1491487415.38,26228,14.38,72544.5,-9.71,-11.37,-11.37,0,*53
1491487416.61,26229,14.38,72546.5,-9.71,-11.11,-11.07,0,*55
1491487417.84,26230,14.38,72544.0,-9.67,-11.07,-10.97,0,*55
1491487419.04,26231,14.38,72546.5,-9.71,-11.19,-11.23,0,*52
1491487420.28,26232,14.38,72544.8,-9.71,-11.33,-11.33,0,*58
1491487421.49,26233,14.38,72538.8,-9.71,-11.23,-11.11,0,*58
1491487422.73,26234,14.38,72538.8,-9.67,-11.33,-11.33,0,*59
1491487423.99,26235,14.38,72538.0,-9.67,-11.93,-11.89,0,*53
1491487425.25,26236,14.44,72544.0,-9.67,-11.67,-11.67,0,*5B
1491487426.5,26237,14.38,72534.5,-9.71,-11.55,-11.55,0,*5D
1491487427.76,26238,14.38,72542.3,-9.71,-12.07,-12.07,0,*52
1491487429.01,26239,14.38,72532.8,-9.71,-11.81,-11.63,0,*5F
1491487430.26,26240,14.38,72532.5,-9.67,-11.37,-11.37,0,*5A
1491487431.5,26241,14.38,72528.0,-9.71,-11.37,-11.33,0,*58
1491487432.71,26242,14.38,72532.5,-9.71,-11.45,-11.45,0,*5F
1491487433.96,26243,14.38,72548.5,-9.71,-11.51,-11.51,0,*5E
1491487435.21,26244,14.38,72538.3,-9.71,-11.37,-11.51,0,*59
1491487436.43,26245,14.38,72538.3,-9.71,-11.51,-11.45,0,*5D
1491487437.64,26246,14.38,72550.0,-9.71,-11.45,-11.45,0,*5B
1491487438.87,26247,14.44,72548.8,-9.71,-11.55,-11.45,0,*5B
1491487440.13,26248,14.38,72564.3,-9.71,-11.63,-11.63,0,*55
1491487441.39,26249,14.38,72564.5,-9.71,-11.93,-11.89,0,*5F
1491487442.67,26250,14.38,72564.5,-9.73,-11.85,-11.85,0,*5E
1491487443.95,26251,14.38,72562.3,-9.73,-11.97,-12.11,0,*52
1491487445.2,26252,14.38,72570.0,-9.75,-11.97,-12.07,0,*50
1491487446.45,26253,14.38,72560.5,-9.75,-11.73,-11.85,0,*52
1491487447.71,26254,14.38,72562.8,-9.75,-11.67,-11.81,0,*54
1491487448.96,26255,14.38,72560.5,-9.75,-11.85,-11.85,0,*5D
1491487450.25,26256,14.38,72544.3,-9.73,-11.93,-11.93,0,*58
1491487451.5,26257,14.38,72540.0,-9.75,-11.73,-11.81,0,*52
1491487452.75,26258,14.38,72534.8,-9.75,-11.55,-11.55,0,*50
1491487454.0,26259,14.38,72534.8,-9.75,-11.51,-11.51,0,*51
1491487455.24,26260,14.38,72528.0,-9.73,-11.41,-11.41,0,*5D
1491487456.47,26261,14.38,72538.3,-9.75,-11.37,-11.41,0,*5B
1491487457.72,26262,14.38,72530.0,-9.73,-11.51,-11.41,0,*5E
1491487458.93,26263,14.38,72524.8,-9.75,-11.41,-11.41,0,*58
1491487460.19,26264,14.38,72524.3,-9.75,-11.73,-11.67,0,*5A
1491487461.45,26265,14.38,72498.8,-9.75,-11.59,-11.55,0,*52
1491487462.69,26266,14.38,72502.5,-9.77,-11.45,-11.45,0,*5F
1491487463.92,26267,14.38,72504.8,-9.73,-11.23,-11.11,0,*5B
1491487465.17,26268,14.38,72514.0,-9.73,-10.85,-10.75,0,*5A
1491487466.37,26269,14.38,72512.5,-9.75,-11.11,-11.11,0,*52
1491487467.58,26270,14.38,72518.0,-9.75,-11.01,-11.11,0,*5B
1491487468.82,26271,14.38,72522.3,-9.73,-11.01,-11.01,0,*5D
1491487470.04,26272,14.38,72526.3,-9.73,-11.11,-11.23,0,*5F
1491487471.25,26273,14.38,72526.0,-9.75,-11.15,-11.23,0,*5C
1491487472.5,26274,14.38,72526.5,-9.73,-11.23,-11.29,0,*52
1491487473.76,26275,14.38,72528.3,-9.73,-11.23,-11.37,0,*5C
1491487474.99,26276,14.38,72532.5,-9.75,-11.41,-11.51,0,*5D
1491487476.27,26277,14.38,72526.0,-9.73,-11.59,-11.59,0,*5B
1491487477.54,26278,14.38,72524.0,-9.73,-11.51,-11.51,0,*54
1491487478.82,26279,14.38,72516.0,-9.73,-11.37,-11.37,0,*55
1491487480.09,26280,14.38,72534.0,-9.73,-11.81,-11.81,0,*53
1491487481.37,26281,14.38,72538.8,-9.73,-11.51,-11.55,0,*56
1491487482.65,26282,14.38,72550.5,-9.73,-11.29,-11.29,0,*51
1491487483.88,26283,14.38,72544.5,-9.75,-11.23,-11.29,0,*5C
1491487485.14,26284,14.38,72550.0,-9.73,-11.51,-11.41,0,*56
1491487486.41,26285,14.38,72552.5,-9.73,-11.51,-11.51,0,*56
1491487487.69,26286,14.38,72568.3,-9.73,-11.55,-11.51,0,*51
1491487488.95,26287,14.38,72580.5,-9.75,-11.55,-11.51,0,*56
1491487490.16,26288,14.38,72584.8,-9.75,-11.41,-11.41,0,*5D
1491487491.41,26289,14.38,72578.5,-9.73,-11.41,-11.51,0,*5B
1491487492.69,26290,14.38,72566.5,-9.73,-11.37,-11.37,0,*52
1491487493.92,26291,14.38,72568.3,-9.73,-11.15,-11.23,0,*56
1491487495.15,26292,14.38,72588.8,-9.73,-11.01,-11.11,0,*51
1491487496.41,26293,14.38,72602.5,-9.75,-11.29,-11.29,0,*57
1491487497.64,26294,14.38,72606.5,-9.73,-11.23,-11.23,0,*56
1491487498.89,26295,14.38,72592.8,-9.75,-11.29,-11.37,0,*5E
1491487500.18,26296,14.38,72580.5,-9.73,-11.29,-11.29,0,*54
1491487501.45,26297,14.38,72572.5,-9.73,-11.37,-11.37,0,*55
1491487502.69,26298,14.38,72578.3,-9.73,-11.41,-11.41,0,*5A
1491487503.94,26299,14.38,72578.3,-9.73,-11.23,-11.29,0,*51
1491487505.14,26300,14.38,72588.3,-9.71,-11.19,-11.23,0,*51
1491487506.39,26301,14.38,72590.5,-9.67,-11.37,-11.51,0,*5E
1491487507.62,26302,14.38,72590.0,-9.67,-11.45,-11.37,0,*58
1491487508.82,26303,14.38,72584.5,-9.67,-11.11,-11.11,0,*5C
1491487510.07,26304,14.38,72570.5,-9.71,-11.33,-11.33,0,*5C
1491487511.31,26305,14.38,72560.3,-9.67,-11.37,-11.37,0,*5A
1491487512.51,26306,14.38,72558.8,-9.71,-11.19,-11.23,0,*57
1491487513.74,26307,14.38,72534.5,-9.71,-11.45,-11.55,0,*5E
1491487515.0,26308,14.38,72534.3,-9.71,-11.63,-11.55,0,*55
1491487516.25,26309,14.38,72526.0,-9.71,-11.55,-11.51,0,*55
1491487517.5,26310,14.38,72508.3,-9.71,-11.51,-11.51,0,*59
1491487518.73,26311,14.38,72540.3,-9.71,-11.37,-11.45,0,*5D
1491487520.0,26312,14.38,72580.5,-9.73,-11.37,-11.37,0,*59
1491487521.25,26313,14.38,72554.3,-9.71,-11.37,-11.37,0,*5A
1491487522.47,26314,14.38,72544.8,-9.71,-11.37,-11.23,0,*58
1491487523.72,26315,14.38,72538.8,-9.71,-11.33,-11.33,0,*5C
1491487524.97,26316,14.38,72560.5,-9.71,-11.33,-11.33,0,*5F
1491487526.19,26317,14.38,72552.8,-9.71,-11.23,-11.33,0,*5F
1491487527.43,26318,14.38,72542.3,-9.67,-11.33,-11.33,0,*56
1491487528.69,26319,14.38,72540.5,-9.67,-11.55,-11.55,0,*57
1491487529.92,26320,14.38,72548.3,-9.67,-11.45,-11.55,0,*5C
1491487531.18,26321,14.38,72548.8,-9.71,-11.63,-11.63,0,*5B
1491487532.44,26322,14.38,72552.3,-9.71,-11.67,-11.63,0,*5C
1491487533.7,26323,14.38,72560.5,-9.71,-11.55,-11.55,0,*59
1491487534.92,26324,14.38,72556.5,-9.71,-11.37,-11.45,0,*5B
1491487536.15,26325,14.38,72558.3,-9.71,-11.45,-11.37,0,*5A
1491487537.38,26326,14.38,72560.5,-9.67,-11.33,-11.23,0,*5A
1491487538.63,26327,14.38,72566.5,-9.67,-11.33,-11.33,0,*5A
1491487539.82,26328,14.38,72572.0,-9.67,-11.11,-11.19,0,*5D
1491487541.07,26329,14.38,72568.0,-9.67,-11.33,-11.33,0,*54
1491487542.32,26330,14.38,72564.3,-9.67,-11.37,-11.37,0,*5C
1491487543.53,26331,14.38,72552.0,-9.67,-11.45,-11.45,0,*5D
1491487544.77,26332,14.38,72554.8,-9.67,-11.37,-11.37,0,*5E
1491487546.03,26333,14.38,72550.5,-9.71,-11.51,-11.63,0,*59
1491487547.28,26334,14.38,72544.0,-9.71,-11.67,-11.67,0,*5F
1491487548.54,26335,14.38,72544.3,-9.71,-11.67,-11.67,0,*5E
1491487549.79,26336,14.38,72532.5,-9.71,-11.77,-11.81,0,*54
1491487551.05,26337,14.38,72538.3,-9.67,-11.93,-11.93,0,*5B
1491487552.3,26338,14.38,72530.5,-9.71,-11.63,-11.77,0,*56
1491487553.56,26339,14.38,72534.0,-9.71,-11.63,-11.63,0,*52
1491487554.81,26340,14.38,72540.5,-9.71,-11.51,-11.51,0,*5C
1491487556.06,26341,14.38,72564.8,-9.71,-11.63,-11.67,0,*59
1491487557.32,26342,14.38,72560.0,-9.71,-11.55,-11.55,0,*5E
1491487558.57,26343,14.38,72566.3,-9.67,-11.55,-11.55,0,*58
1491487559.82,26344,14.38,72562.8,-9.71,-11.51,-11.51,0,*58
1491487561.07,26345,14.38,72558.0,-9.71,-11.77,-11.77,0,*59
1491487562.31,26346,14.38,72554.0,-9.71,-11.81,-11.81,0,*5A
1491487563.59,26347,14.38,72556.8,-9.73,-11.59,-11.59,0,*59
1491487564.87,26348,14.38,72564.0,-9.73,-11.97,-11.93,0,*52
1491487566.12,26349,14.38,72560.0,-9.71,-12.07,-12.15,0,*56
1491487567.39,26350,14.38,72548.3,-9.73,-12.25,-12.35,0,*5E
1491487568.62,26351,14.38,72550.0,-9.75,-12.35,-12.43,0,*59
1491487569.88,26352,14.38,72556.5,-9.75,-12.35,-12.35,0,*5B
1491487571.09,26353,14.38,72556.3,-9.75,-12.21,-12.25,0,*5E
1491487572.32,26354,14.38,72558.3,-9.75,-12.11,-12.25,0,*5A
1491487573.58,26355,14.38,72562.0,-9.75,-11.97,-11.93,0,*58
1491487574.79,26356,14.38,72556.8,-9.79,-12.29,-12.29,0,*53
1491487576.03,26357,14.38,72558.5,-9.77,-12.29,-12.39,0,*5D
1491487577.28,26358,14.38,72550.0,-9.79,-12.15,-12.15,0,*5D
1491487578.54,26359,14.38,72564.5,-9.79,-11.89,-11.97,0,*53
1491487579.79,26360,14.38,72564.0,-9.79,-11.89,-11.97,0,*59
1491487581.05,26361,14.38,72550.3,-9.77,-12.25,-12.15,0,*5A
1491487582.26,26362,14.38,72538.8,-9.79,-12.03,-12.03,0,*54
1491487583.55,26363,14.38,72552.0,-9.77,-11.55,-11.55,0,*5B
1491487584.83,26364,14.38,72552.5,-9.77,-11.59,-11.55,0,*50
1491487586.07,26365,14.38,72564.8,-9.79,-11.45,-11.55,0,*52
1491487587.29,26366,14.38,72568.0,-9.79,-11.45,-11.41,0,*54
1491487588.57,26367,14.38,72562.3,-9.77,-11.55,-11.55,0,*5F
1491487589.84,26368,14.38,72568.8,-9.79,-11.63,-11.63,0,*5E
1491487591.07,26369,14.38,72584.0,-9.79,-11.29,-11.19,0,*5C
1491487592.32,26370,14.38,72586.5,-9.79,-11.85,-11.77,0,*5A
1491487593.58,26371,14.38,72582.0,-9.77,-12.03,-11.97,0,*56
1491487594.78,26372,14.38,72576.3,-9.79,-12.03,-12.03,0,*55
1491487596.04,26373,14.38,72558.0,-9.79,-12.15,-12.11,0,*50
1491487597.3,26374,14.38,72540.0,-9.79,-12.15,-12.15,0,*53
1491487598.58,26375,14.38,72532.3,-9.77,-11.85,-11.85,0,*5C
1491487599.84,26376,14.38,72534.8,-9.79,-11.63,-11.63,0,*51
1491487601.05,26377,14.38,72532.5,-9.79,-11.45,-11.45,0,*50
1491487602.27,26378,14.38,72540.5,-9.79,-11.45,-11.41,0,*5B
1491487603.51,26379,14.38,72548.0,-9.77,-11.45,-11.45,0,*50
1491487604.8,26380,14.38,72550.0,-9.77,-11.55,-11.55,0,*56
1491487606.09,26381,14.38,72558.5,-9.77,-11.29,-11.29,0,*57
1491487607.35,26382,14.38,72564.3,-9.77,-11.19,-11.29,0,*57
1491487608.57,26383,14.38,72572.5,-9.77,-11.19,-11.19,0,*55
1491487609.8,26384,14.38,72568.8,-9.77,-11.19,-11.19,0,*52
1491487611.04,26385,14.38,72548.0,-9.73,-10.89,-10.97,0,*58
1491487612.24,26386,14.38,72544.3,-9.75,-11.15,-11.11,0,*56
1491487613.44,26387,14.38,72548.8,-9.75,-11.11,-11.11,0,*53
1491487614.65,26388,14.38,72556.8,-9.75,-11.23,-11.23,0,*5C
1491487615.85,26389,14.38,72564.5,-9.75,-11.23,-11.15,0,*58
1491487617.08,26390,14.38,72574.5,-9.75,-11.23,-11.29,0,*5F
1491487618.32,26391,14.38,72578.3,-9.73,-11.11,-10.97,0,*5D
1491487619.59,26392,14.38,72574.3,-9.73,-11.37,-11.37,0,*51
1491487620.87,26393,14.38,72578.0,-9.73,-11.37,-11.29,0,*5F
1491487622.15,26394,14.38,72568.8,-9.73,-11.51,-11.59,0,*5F
1491487623.4,26395,14.38,72574.3,-9.75,-11.51,-11.55,0,*54
1491487624.68,26396,14.38,72576.3,-9.73,-11.51,-11.55,0,*51
1491487625.93,26397,14.38,72580.8,-9.75,-11.37,-11.37,0,*52
1491487627.16,26398,14.38,72584.3,-9.73,-11.01,-11.01,0,*5B
1491487628.39,26399,14.38,72586.8,-9.73,-11.11,-11.23,0,*5B
1491487629.59,26400,14.38,72592.5,-9.75,-11.15,-11.15,0,*5B
1491487630.85,26401,14.38,72596.8,-9.73,-11.23,-11.29,0,*56
1491487632.08,26402,14.38,72602.8,-9.73,-11.23,-11.23,0,*5F
1491487633.31,26403,14.38,72598.0,-9.73,-11.15,-11.23,0,*5B
1491487634.58,26404,14.38,72600.5,-9.73,-11.37,-11.37,0,*59
1491487635.81,26405,14.38,72594.8,-9.73,-11.15,-11.15,0,*58
1491487637.09,26406,14.38,72584.0,-9.73,-11.59,-11.73,0,*53
1491487638.37,26407,14.38,72580.5,-9.73,-11.73,-11.73,0,*5A
1491487639.64,26408,14.38,72590.3,-9.73,-11.51,-11.51,0,*55
1491487640.91,26409,14.38,72582.3,-9.73,-11.73,-11.81,0,*59
1491487642.17,26410,14.38,72582.3,-9.71,-12.15,-12.07,0,*5D
1491487643.44,26411,14.38,72588.8,-9.73,-11.85,-11.85,0,*5D
1491487644.7,26412,14.38,72588.8,-9.75,-11.85,-11.85,0,*58
1491487645.94,26413,14.38,72592.5,-9.75,-11.81,-11.81,0,*59
1491487647.22,26414,14.38,72592.5,-9.73,-11.67,-11.81,0,*50
1491487648.48,26415,14.38,72592.3,-9.75,-11.59,-11.59,0,*5F
1491487649.73,26416,14.38,72590.8,-9.75,-11.67,-11.67,0,*5C
1491487651.02,26417,14.38,72578.5,-9.77,-11.59,-11.55,0,*53
1491487652.22,26418,14.38,72570.8,-9.75,-11.15,-11.23,0,*57
1491487653.48,26419,14.38,72558.5,-9.75,-11.29,-11.29,0,*53
1491487654.74,26420,14.38,72558.5,-9.75,-11.55,-11.51,0,*5D
1491487655.97,26421,14.38,72564.0,-9.73,-11.41,-11.41,0,*5E
1491487657.21,26422,14.38,72562.3,-9.75,-11.29,-11.23,0,*51
1491487658.41,26423,14.38,72564.8,-9.75,-11.23,-11.23,0,*5A
1491487659.67,26424,14.38,72584.5,-9.73,-11.37,-11.41,0,*5A
1491487660.94,26425,14.38,72594.0,-9.73,-11.37,-11.37,0,*5A
1491487662.2,26426,14.38,72608.5,-9.73,-11.41,-11.55,0,*5C
1491487663.45,26427,14.38,72600.3,-9.75,-11.81,-11.93,0,*5D
1491487664.7,26428,14.38,72602.8,-9.75,-11.73,-11.81,0,*5C
1491487665.96,26429,14.38,72600.8,-9.75,-11.55,-11.59,0,*5C
1491487667.22,26430,14.38,72596.0,-9.75,-11.29,-11.29,0,*58
1491487668.45,26431,14.38,72596.5,-9.75,-11.23,-11.29,0,*53
1491487669.68,26432,14.38,72602.5,-9.73,-11.15,-11.15,0,*5C
1491487670.91,26433,14.38,72600.8,-9.73,-11.15,-11.15,0,*5D
1491487672.14,26434,14.38,72606.5,-9.73,-11.11,-11.01,0,*5B
1491487673.37,26435,14.38,72606.5,-9.73,-11.23,-11.23,0,*5B
1491487674.64,26436,14.38,72606.3,-9.73,-11.37,-11.37,0,*58
1491487675.87,26437,14.38,72608.8,-9.73,-11.15,-11.23,0,*5C
1491487677.12,26438,14.38,72604.5,-9.73,-11.23,-11.29,0,*5C
1491487678.41,26439,14.38,72602.8,-9.73,-11.67,-11.67,0,*57
1491487679.68,26440,14.38,72600.3,-9.73,-11.85,-11.97,0,*5A
1491487680.97,26441,14.38,72596.3,-9.73,-12.07,-11.93,0,*56
1491487682.25,26442,14.38,72584.8,-9.73,-11.97,-12.11,0,*56
1491487683.5,26443,14.38,72588.5,-9.73,-12.11,-12.25,0,*5D
1491487684.73,26444,14.38,72580.3,-9.75,-12.43,-12.53,0,*5A
1491487685.99,26445,14.38,72570.8,-9.75,-12.79,-12.79,0,*5A
1491487687.24,26446,14.38,72556.0,-9.75,-12.83,-12.83,0,*59
1491487688.5,26447,14.38,72566.0,-9.77,-13.01,-13.11,0,*5B
1491487689.7,26448,14.38,72572.8,-9.79,-13.15,-13.15,0,*5B
1491487690.9,26449,14.38,72582.3,-9.79,-12.89,-12.89,0,*5A
1491487692.14,26450,14.38,72592.3,-9.79,-13.01,-13.11,0,*53
1491487693.34,26451,14.38,72588.0,-9.81,-12.93,-12.89,0,*5F
1491487694.59,26452,14.38,72578.3,-9.81,-12.61,-12.61,0,*57
1491487695.82,26453,14.38,72574.5,-9.81,-12.35,-12.43,0,*57
1491487697.08,26454,14.38,72550.3,-9.81,-12.53,-12.61,0,*50